Location: Boca de Tacagua
(10.5333°N, 66.9833°W)
Time: 07:00:52
(UTC+00:00)

Cosmos 1536 - Pass Details

Date: 10 July 2022
Orbit: 536 x 556 km, 82.5° (Epoch: 12 August)

Event Time Altitude Azimuth Distance (km) Brightness Sun altitude
Exits shadow 08:10:55 15° 346° (NNW) 1,512 5.2 -27.4°
Drops below altitude 10° 08:11:44 10° 350° (N) 1,831 5.7 -27.3°
Sets 08:13:57 0° 356° (N) 2,726 6.7 -26.8°
